{"data":{"norad_id":66399,"intl_designator":"2025-257V","name":"STARLINK-35657","alt_names":[],"object_type":"PAYLOAD","status":"ACTIVE","operator":null,"country":"US","launch_date":"2025-11-09","launch_site_code":"AFETR","launch_vehicle":null,"mission":null,"orbit_class":"UNKNOWN","rcs_meters":null,"size_class":null,"mass_kg":null,"dimensions":null,"purposes":["comms"],"wikipedia_slug":null,"has_3d_model":false,"image_url":null,"decayed_at":null,"tle_current":{"epoch":"2026-05-25T04:22:56.841312Z","epoch_age_seconds":60096,"freshness":"FRESH","line1":"1 66399U 25257V   26145.18260233  .00020477  00000+0  61528-3 0  9991","line2":"2 66399  53.1580 221.1002 0001449  89.3403 270.7766 15.34412240 31443","mean_motion":15.3441224,"eccentricity":0.0001449,"inclination_deg":53.158,"raan_deg":221.1002,"arg_perigee_deg":89.3403,"mean_anomaly_deg":270.7766,"bstar":0.00061528,"rev_number":3144,"period_min":93.847009458162,"perigee_km":461.67562811008,"apogee_km":463.65809306888,"semimajor_km":6840.8038605895,"source":"CELESTRAK","updated_at":"2026-05-25T13:38:21.204363Z"}}}